Weather in Motorovo

Russia / Omsk Oblast     56°31′32″N   71°10′28″E
temp.,
°C
wind,
m/s
gust,
m/s
humid.,
%
clouds,
%
prec.,
mm/h
press.,
hPa
HPBL,
m
7 may, fri
fri700:00+9wnw411490 0.0 1011540
03:00+7w411580 0.0 1012398
06:00+6w411620 0.0 1014516
09:00+9wnw69495 0.0 10151109
12:00+13wnw69330 0.0 10171309
15:00+16wnw610250 0.0 10171498
18:00+17wnw592944 0.0 10171471
21:00+12w36464 0.0 1018101
8 may, sat
sat800:00+10wsw37535 0.0 1020125
03:00+9wsw36575 0.0 102099
06:00+9wsw37595 0.0 1020118
09:00+16wsw46405 0.0 1020356
12:00+20wsw34335 0.0 10191522
15:00+22w33295 0.0 10182292
18:00+22wsw222810 0.0 10172473
21:00+16ssw1143100 0.0 101711
9 may, sun
sun900:00+14ne0148100 0.0 101812
03:00+11e225528 0.0 101816
06:00+11e367096 0.0 1018101
09:00+16e4754100 0.0 1019446
12:00+19e5742100 0.0 10191105
15:00+21e5634100 0.0 10181976
18:00+20ene5636100 0.0 10192013
21:00+16e41047100 0.0 1019487
10 may, mon
mon1000:00+14ene41149100 0.0 1020535
03:00+11ene41152100 0.0 1020425
06:00+9ene31057100 0.0 1021337
09:00+13ene47415 0.0 1022873
12:00+16ene563526 0.0 10211910
15:00+17ne5634100 0.0 10212454
18:00+16ne4635100 0.0 10212315
21:00+13ene3746100 0.0 1022406
11 may, tue
tue1100:00+11ne245430 0.0 1022129
03:00+9ne246083 0.0 1022113
06:00+8ne246640 0.0 1023137
09:00+12e23495 0.0 1023646
12:00+16e22358 0.0 10222019
15:00+18ene222914 0.0 10212383
18:00+17ene322914 0.0 10212247
21:00+12ene11465 0.0 102210